Location: Berville
(49.1893°N, 2.0748°E)
Time: 00:36:59
(UTC+00:00)

USA 215 - Pass Details

Date: 08 February 2023
Orbit: 1097 x 1110 km, 123.0° (Epoch: 21 March)

Event Time Altitude Azimuth Distance (km) Brightness Sun altitude
Rises 18:07:13 0° 130° (SE) 3,912 5.8 -11.4°
Reaches altitude 10° 18:09:43 10° 132° (SE) 2,955 5.2 -11.8°
Maximum altitude 18:16:14 73° 217° (SW) 1,151 3.5 -12.9°
Drops below altitude 10° 18:22:46 10° 302° (WNW) 2,959 6.3 -14.0°
Sets 18:25:16 0° 305° (NW) 3,918 7.0 -14.4°
